TimeCST,TemperatureF,Dew PointF,Humidity,Sea Level PressureIn,VisibilityMPH,Wind Direction,Wind SpeedMPH,Gust SpeedMPH,PrecipitationIn,Events,Conditions,WindDirDegrees,DateUTC
12:15 AM,50.0,42.8,76,29.97,10.0,SSE,3.5,-,N/A,,Overcast,160,2013-12-02 06:15:00
12:35 AM,50.0,42.8,76,29.97,10.0,South,3.5,-,N/A,,Overcast,170,2013-12-02 06:35:00
12:55 AM,48.2,44.6,87,29.97,7.0,SSW,3.5,-,N/A,Rain,Rain,210,2013-12-02 06:55:00
1:15 AM,46.4,46.4,100,29.97,10.0,Calm,Calm,-,N/A,,Drizzle,0,2013-12-02 07:15:00
1:35 AM,44.6,44.6,100,29.96,7.0,SSE,3.5,-,0.01,,Drizzle,150,2013-12-02 07:35:00
1:55 AM,44.6,-9999,N/A,29.95,10.0,ESE,3.5,-,0.01,Rain,Light Rain,120,2013-12-02 07:55:00
2:15 AM,44.6,-9999,N/A,29.94,7.0,SE,4.6,-,N/A,,Overcast,130,2013-12-02 08:15:00
2:35 AM,44.6,-9999,N/A,29.95,7.0,ESE,3.5,-,N/A,,Overcast,120,2013-12-02 08:35:00
2:55 AM,44.6,-9999,N/A,29.94,7.0,Calm,Calm,-,N/A,Rain,Light Rain,0,2013-12-02 08:55:00
3:15 AM,44.6,-9999,N/A,29.93,3.0,South,8.1,-,0.02,Rain,Rain,170,2013-12-02 09:15:00
3:35 AM,44.6,-9999,N/A,29.92,4.0,South,5.8,-,0.04,Rain,Light Rain,170,2013-12-02 09:35:00
3:55 AM,44.6,-9999,N/A,29.92,5.0,South,4.6,-,0.05,Rain,Light Rain,180,2013-12-02 09:55:00
4:15 AM,44.6,-9999,N/A,29.92,4.0,SSE,3.5,-,0.01,,Drizzle,150,2013-12-02 10:15:00
4:35 AM,44.6,-9999,N/A,29.92,4.0,SSE,3.5,-,0.01,,Haze,150,2013-12-02 10:35:00
4:55 AM,44.6,-9999,N/A,29.92,4.0,SSE,3.5,-,0.01,,Haze,150,2013-12-02 10:55:00
5:15 AM,44.6,-9999,N/A,29.92,2.5,SE,3.5,-,N/A,Rain,Heavy Rain,140,2013-12-02 11:15:00
5:35 AM,44.6,-9999,N/A,29.92,2.5,SSE,4.6,-,0.02,Rain,Rain,150,2013-12-02 11:35:00
5:55 AM,46.4,-9999,N/A,29.92,2.0,SE,3.5,-,0.02,Rain,Light Rain,140,2013-12-02 11:55:00
6:15 AM,46.4,-9999,N/A,29.91,1.5,SE,3.5,-,0.01,Rain,Light Rain,130,2013-12-02 12:15:00
6:35 AM,44.6,-9999,N/A,29.91,1.8,SE,4.6,-,0.01,Rain,Light Rain,140,2013-12-02 12:35:00
6:55 AM,44.6,-9999,N/A,29.91,1.5,Calm,Calm,-,0.02,Rain,Rain,0,2013-12-02 12:55:00
7:15 AM,46.4,-9999,N/A,29.91,1.2,SE,3.5,-,N/A,Rain,Rain,140,2013-12-02 13:15:00
7:35 AM,46.4,-9999,N/A,29.90,0.8,SE,5.8,-,N/A,Rain,Rain,140,2013-12-02 13:35:00
7:55 AM,46.4,-9999,N/A,29.90,1.0,SE,4.6,-,0.01,Rain,Light Rain,140,2013-12-02 13:55:00
8:15 AM,46.4,-9999,N/A,29.90,1.0,SSE,4.6,-,N/A,Rain,Light Rain,160,2013-12-02 14:15:00
8:35 AM,46.4,-9999,N/A,29.90,1.0,SE,4.6,-,N/A,,Light Drizzle,140,2013-12-02 14:35:00
8:55 AM,48.2,-9999,N/A,29.90,1.5,SSE,3.5,-,N/A,,Overcast,160,2013-12-02 14:55:00
9:15 AM,48.2,-9999,N/A,29.90,1.5,South,5.8,-,N/A,,Overcast,170,2013-12-02 15:15:00
9:35 AM,48.2,-9999,N/A,29.90,3.0,South,5.8,-,0.01,,Overcast,180,2013-12-02 15:35:00
9:55 AM,50.0,-9999,N/A,29.89,2.5,Calm,Calm,-,0.01,,Overcast,0,2013-12-02 15:55:00
10:15 AM,50.0,-9999,N/A,29.89,2.0,SE,3.5,-,N/A,,Overcast,140,2013-12-02 16:15:00
10:35 AM,50.0,-9999,N/A,29.88,3.0,South,3.5,-,N/A,,Overcast,170,2013-12-02 16:35:00
10:55 AM,50.0,-9999,N/A,29.87,4.0,Calm,Calm,-,N/A,,Haze,0,2013-12-02 16:55:00
11:15 AM,51.8,-9999,N/A,29.86,4.0,South,4.6,-,N/A,,Haze,170,2013-12-02 17:15:00
11:35 AM,51.8,-9999,N/A,29.85,4.0,South,4.6,-,N/A,,Haze,170,2013-12-02 17:35:00
11:55 AM,51.8,-9999,N/A,29.84,4.0,South,5.8,-,N/A,,Haze,170,2013-12-02 17:55:00
12:15 PM,51.8,-9999,N/A,29.83,4.0,South,5.8,-,N/A,,Haze,190,2013-12-02 18:15:00
12:35 PM,51.8,-9999,N/A,29.82,4.0,SSW,5.8,-,N/A,,Haze,200,2013-12-02 18:35:00
12:55 PM,51.8,-9999,N/A,29.81,4.0,SE,4.6,-,N/A,,Haze,140,2013-12-02 18:55:00
1:15 PM,53.6,-9999,N/A,29.81,5.0,SSW,5.8,-,N/A,,Haze,200,2013-12-02 19:15:00
1:35 PM,53.6,-9999,N/A,29.81,5.0,South,4.6,-,N/A,,Haze,190,2013-12-02 19:35:00
1:55 PM,53.6,-9999,N/A,29.80,5.0,South,3.5,-,N/A,,Haze,170,2013-12-02 19:55:00
2:15 PM,53.6,-9999,N/A,29.80,5.0,South,5.8,-,N/A,,Haze,190,2013-12-02 20:15:00
2:35 PM,53.6,-9999,N/A,29.79,5.0,South,4.6,-,N/A,Rain,Light Rain,180,2013-12-02 20:35:00
2:55 PM,53.6,-9999,N/A,29.79,2.5,SSE,4.6,-,N/A,Rain,Rain,150,2013-12-02 20:55:00
3:15 PM,53.6,-9999,N/A,29.79,2.0,SSE,4.6,-,N/A,Rain,Light Rain,160,2013-12-02 21:15:00
3:35 PM,53.6,-9999,N/A,29.79,1.5,SSE,3.5,-,N/A,,Drizzle,150,2013-12-02 21:35:00
3:55 PM,51.8,-9999,N/A,29.79,1.5,SSE,4.6,-,N/A,,Overcast,150,2013-12-02 21:55:00
4:15 PM,51.8,-9999,N/A,29.80,2.0,SSE,3.5,-,N/A,,Overcast,150,2013-12-02 22:15:00
4:35 PM,51.8,-9999,N/A,29.79,2.5,SE,5.8,-,N/A,,Overcast,140,2013-12-02 22:35:00
4:55 PM,51.8,-9999,N/A,29.80,2.5,SSE,4.6,-,N/A,,Overcast,150,2013-12-02 22:55:00
5:15 PM,51.8,-9999,N/A,29.80,2.5,SSE,4.6,-,N/A,Rain,Rain,150,2013-12-02 23:15:00
5:35 PM,51.8,-9999,N/A,29.80,2.5,SE,4.6,-,N/A,,Overcast,140,2013-12-02 23:35:00
5:55 PM,51.8,-9999,N/A,29.80,2.5,SSE,5.8,-,N/A,,Overcast,150,2013-12-02 23:55:00
6:15 PM,50.0,-9999,N/A,29.79,2.0,SSE,5.8,-,N/A,,Overcast,150,2013-12-03 00:15:00
6:35 PM,50.0,-9999,N/A,29.80,2.0,South,5.8,-,N/A,,Overcast,170,2013-12-03 00:35:00
6:55 PM,50.0,-9999,N/A,29.80,2.0,SSE,6.9,-,N/A,,Overcast,160,2013-12-03 00:55:00
7:15 PM,50.0,-9999,N/A,29.81,2.0,SSE,5.8,-,N/A,,Overcast,150,2013-12-03 01:15:00
7:35 PM,50.0,-9999,N/A,29.80,1.8,SE,6.9,-,N/A,,Overcast,140,2013-12-03 01:35:00
7:55 PM,50.0,-9999,N/A,29.80,1.5,SE,4.6,-,N/A,,Overcast,140,2013-12-03 01:55:00
8:15 PM,50.0,-9999,N/A,29.81,2.0,SSE,3.5,-,N/A,Rain,Light Rain,150,2013-12-03 02:15:00
8:35 PM,50.0,-9999,N/A,29.80,2.0,SE,4.6,-,0.01,,Overcast,140,2013-12-03 02:35:00
8:55 PM,51.8,-9999,N/A,29.82,2.0,Calm,Calm,-,0.01,Rain,Rain,0,2013-12-03 02:55:00
9:15 PM,51.8,-9999,N/A,29.81,1.2,SE,3.5,-,0.01,Rain,Light Rain,130,2013-12-03 03:15:00
9:35 PM,51.8,-9999,N/A,29.82,1.8,Calm,Calm,-,0.05,Rain,Heavy Rain,0,2013-12-03 03:35:00
9:55 PM,51.8,-9999,N/A,29.82,1.5,North,5.8,-,0.06,,Overcast,350,2013-12-03 03:55:00
10:15 PM,51.8,-9999,N/A,29.82,1.5,Calm,Calm,-,N/A,,Overcast,0,2013-12-03 04:15:00
10:35 PM,51.8,-9999,N/A,29.82,2.5,Calm,Calm,-,N/A,Rain,Rain,0,2013-12-03 04:35:00
10:55 PM,51.8,-9999,N/A,29.82,2.0,Calm,Calm,-,0.01,,Light Drizzle,0,2013-12-03 04:55:00
11:15 PM,50.0,-9999,N/A,29.81,1.2,East,3.5,-,N/A,,Light Drizzle,90,2013-12-03 05:15:00
11:35 PM,51.8,-9999,N/A,29.81,1.8,SE,4.6,-,0.04,Rain,Light Rain,130,2013-12-03 05:35:00
11:55 PM,51.8,-9999,N/A,29.81,1.5,ESE,4.6,-,0.05,,Overcast,120,2013-12-03 05:55:00